Regional Weather Roundup
Issued by NWS

Home | Current Version | Previous Version | Graphics & Text | Print | Product List | Glossary On
Versions: 1 2 3 4 5 6 7 8 9 10 11 12 13 14 15 16 17 18 19 20 21 22 23 24 25 26 27 28 29 30 31 32 33 34 35 36 37 38 39 40 41 42 43 44 45 46 47 48 49 50
000
ASUS43 KLMK 211102
RWRKY
KENTUCKY REGIONAL WEATHER ROUNDUP
NATIONAL WEATHER SERVICE LOUISVILLE KY
700 AM EDT THU AUG 21 2014

NOTE "FAIR" INDICATES FEW OR NO CLOUDS BELOW 12,000 FEET
WITH NO SIGNIFICANT WEATHER AND/OR OBSTRUCTIONS TO VISIBILITY.

KYZ001>023-026-027-061>063-070>075-211200-
WESTERN AND SOUTH CENTRAL KENTUCKY

CITY           SKY/WX    TMP DP  RH WIND       PRES   REMARKS
PADUCAH        MOCLDY    78  73  84 SW7       30.02S
HENDERSON      MOCLDY    72  68  88 S3        30.01S
OWENSBORO      CLOUDY    71  69  93 S7        30.03S
HOPKINSVILLE   NOT AVBL
BOWLING GREEN  CLOUDY    68  66  93 CALM      30.07S
GLASGOW        MOCLDY    67  67 100 CALM      30.08F
$$

KYZ024-025-028>034-038-045-046-053-211200-
NORTH CENTRAL KENTUCKY

CITY           SKY/WX    TMP DP  RH WIND       PRES   REMARKS
LOUISVILLE/SDF CLOUDY    72  68  87 S10       30.02F
LOUISVILLE/LOU CLOUDY    72  68  87 S8        30.02F
FORT KNOX      CLOUDY    70  70 100 W2        30.04S
$$

KYZ035>037-039>044-047>052-055>060-089>105-211200-
NORTHEAST KENTUCKY

CITY           SKY/WX    TMP DP  RH WIND       PRES   REMARKS
LEXINGTON      MOCLDY    70  66  87 S6        30.08S
COVINGTON      PTCLDY    70  68  93 S7        30.04S FOG
FRANKFORT      MOCLDY    69  67  93 S3        30.05F
$$

KYZ054-064>069-076>088-106>120-211200-
SOUTHEAST KENTUCKY

CITY           SKY/WX    TMP DP  RH WIND       PRES   REMARKS
JACKSON        PTCLDY    66  64  93 CALM      30.13R FOG
LONDON         MOCLDY    67  64  90 CALM      30.13R
SOMERSET       MOCLDY    64  64 100 CALM      30.12R FOG
MIDDLESBORO    FOG       64  64 100 CALM      30.15R VSB 1/2
MONTICELLO     MOSUNNY   65  64  96 CALM      30.13R FOG
$$




USA.gov is the U.S. government's official web portal to all federal, state and local government web resources and services.